Location: Kampernieuwstad
(52.5135°N, 5.8742°E)
Time: 20:32:09
(UTC+00:00)

Cosmos 1766 - Pass Details

Date: 15 May 2026
Orbit: 398 x 405 km, 82.5° (Epoch: 7 June)

Event Time Altitude Azimuth Distance (km) Brightness Sun altitude
Rises 21:50:10 0° 349° (N) 2,367 8.2 -15.0°
Reaches altitude 10° 21:52:13 10° 350° (N) 1,499 6.8 -15.2°
Maximum altitude 21:55:28 87° 73° (ENE) 421 2.6 -15.4°
Enters shadow 21:56:37 37° 168° (SSE) 658 3.2 -15.5°
